GW3448 Weather Reports


Display with metric or nautical units.
time (UTC)temp
F
wind
direction
speed
MPH
gust
MPH
rain 1hr
in
rain 24hr
in
rain mn
in
humidity
%
barometer
mb
20260506134800 62 188 2.0 8.0 0.00 0.00 0.00 67 1012.3
20260506134719 62 199 2.0 8.0 0.00 0.00 0.00 67 1012.3
20260506134654 62 212 2.0 8.0 0.00 0.00 0.00 67 1012.4
20260506134642 62 207 3.0 8.0 0.00 0.00 0.00 67 1012.4
20260506134407 62 169 3.0 8.0 0.00 0.00 0.00 67 1012.3
20260506134355 62 189 2.0 7.0 0.00 0.00 0.00 67 1012.3
20260506134109 62 269 2.0 5.0 0.00 0.00 0.00 67 1012.3
20260506133829 62 246 2.0 5.0 0.00 0.00 0.00 67 1012.3
20260506133817 62 171 3.0 5.0 0.00 0.00 0.00 67 1012.3
20260506133446 62 182 2.0 5.0 0.00 0.00 0.00 66 1012.2
20260506133345 62 240 2.0 8.0 0.00 0.00 0.00 67 1012.2
20260506133244 62 202 2.0 8.0 0.00 0.00 0.00 66 1012.2
20260506133151 62 275 2.0 8.0 0.00 0.00 0.00 66 1012.2
20260506133113 62 185 1.0 8.0 0.00 0.00 0.00 66 1012.2
20260506133102 62 205 2.0 8.0 0.00 0.00 0.00 66 1012.2
20260506132742 62 208 1.0 8.0 0.00 0.00 0.00 66 1012.2
20260506132648 62 234 1.0 8.0 0.00 0.00 0.00 66 1012.2
20260506132541 62 179 2.0 8.0 0.00 0.00 0.00 66 1012.1
20260506132513 62 246 3.0 8.0 0.00 0.00 0.00 66 1012.1
20260506132459 62 270 2.0 6.0 0.00 0.00 0.00 66 1012.1
20260506132147 62 207 2.0 5.0 0.00 0.00 0.00 66 1012.1
20260506132036 62 215 2.0 5.0 0.00 0.00 0.00 66 1012.1
20260506132000 62 166 2.0 5.0 0.00 0.00 0.00 66 1012.1
20260506131948 62 238 2.0 5.0 0.00 0.00 0.00 66 1012.0
20260506131937 62 269 2.0 5.0 0.00 0.00 0.00 66 1012.0
20260506131606 62 234 2.0 5.0 0.00 0.00 0.00 66 1012.1
20260506131552 62 219 2.0 5.0 0.00 0.00 0.00 66 1012.0
20260506131257 62 124 1.0 5.0 0.00 0.00 0.00 66 1012.0
20260506131233 62 198 2.0 5.0 0.00 0.00 0.00 66 1012.0
20260506131224 62 156 2.0 5.0 0.00 0.00 0.00 66 1012.0
20260506131211 62 132 2.0 5.0 0.00 0.00 0.00 66 1012.0
20260506130629 62 158 1.0 5.0 0.00 0.00 0.00 66 1012.0
20260506130529 62 137 0.0 2.0 0.00 0.00 0.00 66 1011.9
20260506130450 62 135 0.0 3.0 0.00 0.00 0.00 66 1011.9
20260506130438 62 123 1.0 3.0 0.00 0.00 0.00 66 1011.9
20260506130425 62 223 1.0 3.0 0.00 0.00 0.00 66 1011.9
20260506130143 62 204 1.0 3.0 0.00 0.00 0.00 66 1011.9
20260506125817 62 46 0.0 3.0 0.00 0.00 0.00 66 1011.8
20260506125711 62 46 1.0 3.0 0.00 0.00 0.00 66 1011.9
20260506125610 62 112 1.0 4.0 0.00 0.00 0.00 65 1011.8
20260506125513 62 109 1.0 5.0 0.00 0.00 0.00 65 1011.8
20260506125439 62 275 1.0 5.0 0.00 0.00 0.00 65 1011.8
20260506125429 62 263 0.0 5.0 0.00 0.00 0.00 65 1011.8
20260506125108 62 184 0.0 5.0 0.00 0.00 0.00 65 1011.8
20260506125008 62 184 0.0 5.0 0.00 0.00 0.00 65 1011.8
20260506124911 62 184 2.0 5.0 0.00 0.00 0.00 65 1011.7
20260506124805 62 157 2.0 5.0 0.00 0.00 0.00 65 1011.7
20260506124704 62 198 2.0 5.0 0.00 0.00 0.00 65 1011.7
20260506124601 62 159 1.0 4.0 0.00 0.00 0.00 65 1011.7
20260506124505 62 205 0.0 4.0 0.00 0.00 0.00 65 1011.7
20260506124403 62 64 0.0 4.0 0.00 0.00 0.00 66 1011.7
20260506124305 62 249 1.0 4.0 0.00 0.00 0.00 66 1011.7
20260506124203 62 249 0.0 4.0 0.00 0.00 0.00 66 1011.7
20260506124104 62 211 1.0 4.0 0.00 0.00 0.00 66 1011.7
20260506124000 62 128 2.0 4.0 0.00 0.00 0.00 66 1011.7
20260506123906 62 232 2.0 4.0 0.00 0.00 0.00 66 1011.7
20260506123800 62 292 1.0 4.0 0.00 0.00 0.00 66 1011.7
20260506123705 62 171 1.0 4.0 0.00 0.00 0.00 66 1011.7
20260506123602 62 171 1.0 3.0 0.00 0.00 0.00 66 1011.7
20260506123502 62 128 0.0 3.0 0.00 0.00 0.00 66 1011.7
20260506123402 62 351 0.0 3.0 0.00 0.00 0.00 66 1011.7
20260506123302 62 297 1.0 5.0 0.00 0.00 0.00 66 1011.7
20260506123202 62 178 1.0 5.0 0.00 0.00 0.00 66 1011.7
20260506123102 62 115 1.0 5.0 0.00 0.00 0.00 66 1011.7
20260506123003 62 352 1.0 5.0 0.00 0.00 0.00 67 1011.7
20260506122901 62 0 1.0 5.0 0.00 0.00 0.00 67 1011.7
20260506122802 62 109 1.0 5.0 0.00 0.00 0.00 66 1011.6
20260506122702 62 38 1.0 5.0 0.00 0.00 0.00 66 1011.7
20260506122606 62 38 1.0 5.0 0.00 0.00 0.00 66 1011.6
20260506122552 62 186 1.0 5.0 0.00 0.00 0.00 66 1011.6
20260506122540 62 243 1.0 5.0 0.00 0.00 0.00 66 1011.5
20260506122530 62 207 1.0 5.0 0.00 0.00 0.00 66 1011.6
20260506122516 62 124 2.0 5.0 0.00 0.00 0.00 66 1011.5
20260506122231 63 258 3.0 5.0 0.00 0.00 0.00 66 1011.5
20260506122219 63 218 2.0 5.0 0.00 0.00 0.00 66 1011.4
20260506121948 63 199 2.0 6.0 0.00 0.00 0.00 66 1011.4
20260506121925 63 220 2.0 6.0 0.00 0.00 0.00 65 1011.3
20260506121914 63 200 2.0 10.0 0.00 0.00 0.00 65 1011.3
20260506121901 63 186 2.0 10.0 0.00 0.00 0.00 65 1011.3
20260506121820 63 167 2.0 10.0 0.00 0.00 0.00 65 1011.3
20260506121808 63 190 2.0 10.0 0.00 0.00 0.00 65 1011.2
20260506121306 63 170 2.0 10.0 0.00 0.00 0.00 65 1011.3
20260506121035 63 188 3.0 10.0 0.00 0.00 0.00 64 1011.2
20260506120530 63 172 2.0 6.0 0.00 0.00 0.00 65 1011.2
20260506120519 63 269 2.0 6.0 0.00 0.00 0.00 65 1011.2
20260506120234 63 234 2.0 6.0 0.00 0.00 0.00 65 1011.2
20260506120221 63 197 2.0 6.0 0.00 0.00 0.00 65 1011.1
20260506120209 63 191 2.0 5.0 0.00 0.00 0.00 65 1011.1
20260506115937 63 163 1.0 4.0 0.00 0.00 0.00 65 1011.1
20260506115654 63 224 2.0 4.0 0.00 0.00 0.00 65 1011.1
20260506115642 63 214 1.0 4.0 0.00 0.00 0.00 65 1011.0
20260506115105 63 234 2.0 4.0 0.00 0.00 0.00 66 1011.0
20260506115002 63 232 2.0 4.0 0.00 0.00 0.00 65 1011.0
20260506114903 63 233 1.0 5.0 0.00 0.00 0.00 66 1011.0
20260506114801 63 244 1.0 5.0 0.00 0.00 0.00 66 1011.0
20260506114730 63 240 1.0 5.0 0.00 0.00 0.00 66 1011.0
20260506114714 63 244 1.0 5.0 0.00 0.00 0.00 66 1011.0
20260506114649 63 180 1.0 5.0 0.00 0.00 0.00 66 1011.0
20260506114638 63 159 1.0 5.0 0.00 0.00 0.00 66 1011.0
20260506114629 63 188 1.0 6.0 0.00 0.00 0.00 66 1011.0
20260506114618 63 236 2.0 6.0 0.00 0.00 0.00 66 1011.0
20260506113802 63 223 0.0 9.0 0.00 0.00 0.00 67 1010.9
20260506113700 63 215 1.0 9.0 0.00 0.00 0.00 67 1010.9
20260506113610 63 239 3.0 9.0 0.00 0.00 0.00 68 1010.9
20260506113501 63 239 2.0 9.0 0.00 0.00 0.00 67 1010.9
20260506113401 63 268 2.0 9.0 0.00 0.00 0.00 68 1010.9
20260506113300 63 232 3.0 9.0 0.00 0.00 0.00 68 1010.8
20260506113207 63 208 2.0 9.0 0.00 0.00 0.00 68 1010.9
20260506113146 62 210 2.0 9.0 0.00 0.00 0.00 69 1010.9
20260506113124 62 236 3.0 9.0 0.00 0.00 0.00 69 1010.9
20260506112801 62 175 2.0 6.0 0.00 0.00 0.00 69 1010.9
20260506112701 62 227 2.0 7.0 0.00 0.00 0.00 69 1010.9
20260506112606 62 240 2.0 7.0 0.00 0.00 0.00 69 1010.9
20260506112505 62 270 2.0 7.0 0.00 0.00 0.00 69 1010.8
20260506112435 62 204 2.0 7.0 0.00 0.00 0.00 69 1010.9
20260506112424 62 206 1.0 7.0 0.00 0.00 0.00 69 1010.9
20260506112108 63 188 1.0 7.0 0.00 0.00 0.00 69 1010.9
20260506112001 62 165 1.0 7.0 0.00 0.00 0.00 69 1010.8
20260506111902 62 184 2.0 7.0 0.00 0.00 0.00 69 1010.9
20260506111814 63 183 2.0 7.0 0.00 0.00 0.00 69 1010.9
20260506111701 63 171 2.0 7.0 0.00 0.00 0.00 69 1010.8
20260506111606 63 246 2.0 7.0 0.00 0.00 0.00 69 1010.9
20260506111501 63 186 2.0 7.0 0.00 0.00 0.00 69 1010.8
20260506111430 63 215 3.0 8.0 0.00 0.00 0.00 69 1010.9
20260506111419 63 244 2.0 8.0 0.00 0.00 0.00 69 1010.9
20260506111406 63 150 2.0 8.0 0.00 0.00 0.00 69 1010.9
20260506111352 63 213 2.0 8.0 0.00 0.00 0.00 68 1010.8
20260506110803 63 238 3.0 8.0 0.00 0.00 0.00 68 1010.9
20260506110700 63 217 3.0 8.0 0.00 0.00 0.00 68 1010.9
20260506110603 63 186 2.0 8.0 0.00 0.00 0.00 68 1010.8
20260506110503 63 239 0.0 8.0 0.00 0.00 0.00 68 1010.9
20260506110403 63 200 1.0 8.0 0.00 0.00 0.00 68 1010.9
20260506110302 63 269 1.0 8.0 0.00 0.00 0.00 68 1010.9
20260506110203 63 266 2.0 8.0 0.00 0.00 0.00 68 1010.9
20260506110002 63 202 2.0 8.0 0.00 0.00 0.00 68 1010.8
20260506105900 63 185 2.0 8.0 0.00 0.00 0.00 68 1010.8
20260506105801 63 211 2.0 8.0 0.00 0.00 0.00 68 1010.8
20260506105701 63 232 2.0 8.0 0.00 0.00 0.00 68 1010.8
20260506105601 63 159 3.0 8.0 0.00 0.00 0.00 68 1010.8
20260506105503 63 227 2.0 8.0 0.00 0.00 0.00 68 1010.8
20260506105432 63 206 2.0 6.0 0.00 0.00 0.00 68 1010.8
20260506105421 63 251 2.0 6.0 0.00 0.00 0.00 68 1010.7
20260506105409 63 251 3.0 6.0 0.00 0.00 0.00 68 1010.7
20260506105122 63 251 2.0 6.0 0.00 0.00 0.00 68 1010.7
20260506104800 63 242 1.0 6.0 0.00 0.00 0.00 68 1010.7
20260506104703 63 227 1.0 5.0 0.00 0.00 0.00 68 1010.7
20260506104601 63 186 1.0 5.0 0.00 0.00 0.00 68 1010.7
20260506104504 63 184 2.0 7.0 0.00 0.00 0.00 68 1010.7
20260506104402 63 193 2.0 7.0 0.00 0.00 0.00 68 1010.6
20260506104302 63 229 2.0 7.0 0.00 0.00 0.00 68 1010.6
20260506104200 63 182 1.0 7.0 0.00 0.00 0.00 68 1010.6
20260506104059 63 198 1.0 7.0 0.00 0.00 0.00 68 1010.6
20260506103959 63 190 1.0 7.0 0.00 0.00 0.00 68 1010.6
20260506103858 63 209 1.0 7.0 0.00 0.00 0.00 68 1010.6
20260506103758 63 215 2.0 7.0 0.00 0.00 0.00 68 1010.6
20260506103658 63 214 2.0 7.0 0.00 0.00 0.00 68 1010.6
20260506103558 63 235 2.0 7.0 0.00 0.00 0.00 68 1010.6
20260506103456 63 296 2.0 6.0 0.00 0.00 0.00 68 1010.6
20260506103355 63 149 2.0 8.0 0.00 0.00 0.00 68 1010.5
20260506103331 63 229 1.0 8.0 0.00 0.00 0.00 68 1010.6
20260506103314 63 197 1.0 8.0 0.00 0.00 0.00 68 1010.6
20260506102953 63 207 3.0 8.0 0.00 0.00 0.00 68 1010.7
20260506102854 63 188 2.0 8.0 0.00 0.00 0.00 68 1010.6
20260506102746 63 185 1.0 8.0 0.00 0.00 0.00 68 1010.6
20260506102726 64 261 3.0 8.0 0.00 0.00 0.00 68 1010.6
20260506102714 64 166 3.0 8.0 0.00 0.00 0.00 68 1010.6
20260506102338 64 147 3.0 7.0 0.00 0.00 0.00 68 1010.6
20260506102236 64 214 2.0 7.0 0.00 0.00 0.00 68 1010.6
20260506102136 64 192 3.0 7.0 0.00 0.00 0.00 68 1010.6
20260506102053 64 219 4.0 7.0 0.00 0.00 0.00 68 1010.6
20260506102026 64 233 4.0 8.0 0.00 0.00 0.00 68 1010.6
20260506102015 64 241 3.0 8.0 0.00 0.00 0.00 68 1010.7
20260506101743 64 178 2.0 8.0 0.00 0.00 0.00 67 1010.6
20260506101731 64 161 2.0 8.0 0.00 0.00 0.00 67 1010.6
20260506101345 64 208 2.0 8.0 0.00 0.00 0.00 67 1010.7
20260506101335 64 250 3.0 8.0 0.00 0.00 0.00 67 1010.6
20260506101321 64 202 3.0 8.0 0.00 0.00 0.00 67 1010.6
20260506101308 64 182 2.0 8.0 0.00 0.00 0.00 67 1010.5
20260506101244 64 169 1.0 6.0 0.00 0.00 0.00 67 1010.5
20260506101014 64 194 3.0 6.0 0.00 0.00 0.00 67 1010.5
20260506100430 64 168 2.0 5.0 0.00 0.00 0.00 67 1010.6
20260506100406 64 194 2.0 5.0 0.00 0.00 0.00 67 1010.5
20260506100355 64 153 3.0 5.0 0.00 0.00 0.00 67 1010.6
20260506100116 64 161 2.0 5.0 0.00 0.00 0.00 67 1010.6
20260506100053 64 170 2.0 5.0 0.00 0.00 0.00 66 1010.5
20260506095729 64 163 1.0 4.0 0.00 0.00 0.00 66 1010.5
20260506095631 64 210 2.0 4.0 0.00 0.00 0.00 66 1010.6
20260506095535 64 154 2.0 4.0 0.00 0.00 0.00 66 1010.5
20260506095432 64 197 2.0 4.0 0.00 0.00 0.00 66 1010.5
20260506095329 64 185 2.0 4.0 0.00 0.00 0.00 66 1010.5
20260506095232 64 207 1.0 4.0 0.00 0.00 0.00 66 1010.5
20260506095128 64 171 1.0 4.0 0.00 0.00 0.00 66 1010.6
20260506095033 64 211 1.0 4.0 0.00 0.00 0.00 66 1010.5
20260506094928 64 221 1.0 4.0 0.00 0.00 0.00 66 1010.5
20260506094832 64 192 1.0 4.0 0.00 0.00 0.00 66 1010.5
20260506094809 64 217 1.0 3.0 0.00 0.00 0.00 66 1010.5
20260506094756 64 180 1.0 3.0 0.00 0.00 0.00 66 1010.5
20260506094744 64 167 1.0 3.0 0.00 0.00 0.00 66 1010.5
20260506094720 64 138 1.0 3.0 0.00 0.00 0.00 66 1010.5
20260506094453 65 256 1.0 3.0 0.00 0.00 0.00 66 1010.5
20260506094153 65 196 1.0 4.0 0.00 0.00 0.00 66 1010.5
20260506093821 65 198 1.0 5.0 0.00 0.00 0.00 66 1010.4
20260506093721 65 194 0.0 5.0 0.00 0.00 0.00 65 1010.4
20260506093622 65 213 0.0 5.0 0.00 0.00 0.00 65 1010.4
20260506093529 65 186 1.0 5.0 0.00 0.00 0.00 65 1010.4
20260506093411 65 172 2.0 5.0 0.00 0.00 0.00 65 1010.4
20260506093309 65 265 2.0 5.0 0.00 0.00 0.00 65 1010.4
20260506093211 65 188 2.0 5.0 0.00 0.00 0.00 65 1010.4
20260506093149 65 213 3.0 7.0 0.00 0.00 0.00 65 1010.4
20260506093126 65 218 4.0 7.0 0.00 0.00 0.00 65 1010.3
20260506092808 65 183 2.0 8.0 0.00 0.00 0.00 65 1010.4
20260506092705 65 180 2.0 8.0 0.00 0.00 0.00 64 1010.4
20260506092607 65 165 2.0 8.0 0.00 0.00 0.00 64 1010.4
20260506092503 65 222 1.0 8.0 0.00 0.00 0.00 64 1010.3
20260506092403 65 198 3.0 8.0 0.00 0.00 0.00 64 1010.4
20260506092305 65 175 3.0 8.0 0.00 0.00 0.00 64 1010.3
20260506092205 65 185 4.0 8.0 0.00 0.00 0.00 64 1010.3
20260506092101 65 165 4.0 8.0 0.00 0.00 0.00 64 1010.3
20260506092002 65 276 3.0 8.0 0.00 0.00 0.00 64 1010.3
20260506091937 65 192 2.0 8.0 0.00 0.00 0.00 64 1010.3
20260506091923 65 157 2.0 8.0 0.00 0.00 0.00 64 1010.3
20260506091648 65 260 3.0 8.0 0.00 0.00 0.00 63 1010.4
20260506091624 65 195 2.0 8.0 0.00 0.00 0.00 63 1010.3
20260506091311 66 185 3.0 13.0 0.00 0.00 0.00 63 1010.3
20260506091229 66 197 3.0 13.0 0.00 0.00 0.00 63 1010.3
20260506091213 66 186 3.0 13.0 0.00 0.00 0.00 62 1010.3
20260506091150 66 245 3.0 13.0 0.00 0.00 0.00 62 1010.3
20260506091136 66 205 3.0 13.0 0.00 0.00 0.00 62 1010.4
20260506090906 66 207 4.0 13.0 0.00 0.00 0.00 62 1010.4
20260506090854 66 210 6.0 13.0 0.00 0.00 0.00 62 1010.4
20260506090300 66 279 3.0 8.0 0.00 0.00 0.00 62 1010.4
20260506090205 66 242 3.0 8.0 0.00 0.00 0.00 62 1010.3
20260506090101 66 238 4.0 8.0 0.00 0.00 0.00 61 1010.3
20260506090004 66 234 3.0 8.0 0.00 0.00 0.00 61 1010.3
20260506085901 66 292 1.0 8.0 0.00 0.00 0.00 61 1010.3
20260506085802 66 273 1.0 4.0 0.00 0.00 0.00 61 1010.3
20260506085706 66 244 1.0 4.0 0.00 0.00 0.00 61 1010.3
20260506085648 66 284 2.0 4.0 0.00 0.00 0.00 61 1010.2
20260506085636 66 259 2.0 4.0 0.00 0.00 0.00 61 1010.2
20260506085306 66 244 2.0 4.0 0.00 0.00 0.00 61 1010.2
20260506085203 66 306 1.0 4.0 0.00 0.00 0.00 61 1010.2
20260506085101 66 298 1.0 5.0 0.00 0.00 0.00 61 1010.2
20260506085013 66 318 2.0 5.0 0.00 0.00 0.00 61 1010.2
20260506084901 66 340 1.0 5.0 0.00 0.00 0.00 61 1010.3
20260506084804 66 286 1.0 5.0 0.00 0.00 0.00 62 1010.2
20260506084701 65 296 1.0 5.0 0.00 0.00 0.00 62 1010.2
20260506084619 65 236 1.0 5.0 0.00 0.00 0.00 62 1010.2
20260506084602 65 195 0.0 5.0 0.00 0.00 0.00 62 1010.2
20260506084401 65 312 1.0 5.0 0.00 0.00 0.00 63 1010.2
20260506084308 65 181 2.0 5.0 0.00 0.00 0.00 63 1010.2
20260506084203 65 253 1.0 5.0 0.00 0.00 0.00 63 1010.2
20260506084101 65 159 0.0 4.0 0.00 0.00 0.00 63 1010.1
20260506084009 65 126 1.0 6.0 0.00 0.00 0.00 64 1010.1
20260506083901 64 150 1.0 6.0 0.00 0.00 0.00 64 1010.2
20260506083802 64 150 1.0 6.0 0.00 0.00 0.00 64 1010.2
20260506083701 64 121 1.0 6.0 0.00 0.00 0.00 65 1010.2
20260506083555 64 144 1.0 6.0 0.00 0.00 0.00 65 1010.1
20260506083454 64 142 0.0 6.0 0.00 0.00 0.00 65 1010.2
20260506083331 64 174 0.0 6.0 0.00 0.00 0.00 66 1010.2
20260506083230 64 174 1.0 6.0 0.00 0.00 0.00 66 1010.1
20260506083131 64 185 1.0 6.0 0.00 0.00 0.00 65 1010.1
20260506083110 64 238 1.0 4.0 0.00 0.00 0.00 66 1010.1
20260506083049 64 224 2.0 4.0 0.00 0.00 0.00 67 1010.1
20260506082730 64 152 2.0 4.0 0.00 0.00 0.00 67 1010.1
20260506082653 64 134 2.0 3.0 0.00 0.00 0.00 67 1010.1
20260506082642 64 165 1.0 4.0 0.00 0.00 0.00 66 1010.2
20260506082619 64 352 1.0 4.0 0.00 0.00 0.00 66 1010.2
20260506082349 64 268 0.0 5.0 0.00 0.00 0.00 66 1010.2
20260506082032 64 270 1.0 5.0 0.00 0.00 0.00 66 1010.1
20260506082001 64 67 2.0 5.0 0.00 0.00 0.00 67 1010.1
20260506081948 64 44 2.0 5.0 0.00 0.00 0.00 66 1009.9
20260506081627 64 194 2.0 5.0 0.00 0.00 0.00 67 1010.2
20260506081530 64 22 2.0 5.0 0.00 0.00 0.00 67 1010.1
20260506081421 65 16 2.0 4.0 0.00 0.00 0.00 67 1009.9
20260506081324 65 67 2.0 4.0 0.00 0.00 0.00 67 1010.1
20260506081308 65 23 1.0 3.0 0.00 0.00 0.00 66 1010.1
20260506081255 65 235 1.0 3.0 0.00 0.00 0.00 66 1010.1
20260506080935 65 237 1.0 3.0 0.00 0.00 0.00 65 1009.9
20260506080923 65 104 2.0 3.0 0.00 0.00 0.00 66 1009.9
20260506080603 65 296 0.0 3.0 0.00 0.00 0.00 66 1009.9
20260506080503 65 299 0.0 3.0 0.00 0.00 0.00 66 1009.9
20260506080402 65 301 0.0 3.0 0.00 0.00 0.00 65 1010.1
20260506080302 65 304 1.0 3.0 0.00 0.00 0.00 66 1010.1
20260506080208 65 300 1.0 3.0 0.00 0.00 0.00 65 1010.1
20260506080147 66 300 1.0 3.0 0.00 0.00 0.00 65 1009.9
20260506080137 66 31 1.0 3.0 0.00 0.00 0.00 65 1009.9
20260506073503 67 9 0.0 4.0 0.00 0.00 0.00 63 1009.8
20260506073403 67 9 1.0 5.0 0.00 0.00 0.00 63 1009.8
20260506073302 67 9 1.0 5.0 0.00 0.00 0.00 63 1009.8
20260506073203 67 9 1.0 5.0 0.00 0.00 0.00 63 1009.8
20260506073102 67 352 2.0 5.0 0.00 0.00 0.00 63 1009.8
20260506073003 67 352 1.0 6.0 0.00 0.00 0.00 63 1009.8
20260506072935 67 16 1.0 6.0 0.00 0.00 0.00 63 1009.7
20260506072923 67 34 2.0 6.0 0.00 0.00 0.00 63 1009.8
20260506072602 67 352 4.0 6.0 0.00 0.00 0.00 63 1009.8
20260506072502 67 5 2.0 6.0 0.00 0.00 0.00 63 1009.8
20260506072401 67 9 2.0 6.0 0.00 0.00 0.00 63 1009.7
20260506072305 67 295 4.0 8.0 0.00 0.00 0.00 64 1009.8
20260506072237 66 260 4.0 8.0 0.00 0.00 0.00 64 1009.8
20260506072225 66 349 2.0 8.0 0.00 0.00 0.00 63 1009.7
20260506071902 66 259 0.0 8.0 0.00 0.00 0.00 64 1009.9
20260506071803 66 352 0.0 8.0 0.00 0.00 0.00 65 1009.8
20260506071702 66 352 1.0 8.0 0.00 0.00 0.00 64 1009.8
20260506071602 66 352 1.0 8.0 0.00 0.00 0.00 64 1009.8
20260506071503 66 352 4.0 8.0 0.00 0.00 0.00 65 1009.8
20260506071402 66 0 3.0 8.0 0.00 0.00 0.00 64 1009.8
20260506071303 66 352 2.0 5.0 0.00 0.00 0.00 64 1009.8
20260506071204 66 312 1.0 3.0 0.00 0.00 0.00 63 1009.8
20260506071127 66 12 1.0 3.0 0.00 0.00 0.00 63 1009.8
20260506071114 66 5 1.0 3.0 0.00 0.00 0.00 63 1009.8
20260506071053 66 266 1.0 3.0 0.00 0.00 0.00 63 1009.8
20260506070703 66 297 1.0 3.0 0.00 0.00 0.00 63 1009.8
20260506070602 66 310 1.0 3.0 0.00 0.00 0.00 63 1009.7
20260506070504 66 27 1.0 3.0 0.00 0.00 0.00 64 1009.7
20260506070401 66 27 0.0 3.0 0.00 0.00 0.00 63 1009.7
20260506070302 66 15 0.0 2.0 0.00 0.00 0.00 63 1009.7
20260506070203 66 348 0.0 3.0 0.00 0.00 0.00 62 1009.7
20260506062204 69 92 0.0 0.0 0.00 0.00 0.00 56 1009.4
20260506062107 69 92 0.0 0.0 0.00 0.00 0.00 56 1009.4
20260506062001 69 92 0.0 0.0 0.00 0.00 0.00 57 1009.4
20260506061902 69 92 0.0 0.0 0.00 0.00 0.00 56 1009.4
20260506061801 69 92 0.0 0.0 0.00 0.00 0.00 56 1009.4
20260506061702 69 92 0.0 0.0 0.00 0.00 0.00 56 1009.4
20260506061604 69 92 0.0 0.0 0.00 0.00 0.00 55 1009.4
20260506061503 69 92 0.0 0.0 0.00 0.00 0.00 55 1009.4
20260506061414 69 92 0.0 0.0 0.00 0.00 0.00 55 1009.4
20260506061305 69 92 0.0 0.0 0.00 0.00 0.00 55 1009.4
20260506061203 69 92 0.0 0.0 0.00 0.00 0.00 55 1009.4
20260506061103 69 92 0.0 0.0 0.00 0.00 0.00 56 1009.4
20260506061007 69 92 0.0 0.0 0.00 0.00 0.00 55 1009.4
20260506060914 69 92 0.0 0.0 0.00 0.00 0.00 56 1009.4
20260506060801 69 92 0.0 0.0 0.00 0.00 0.00 55 1009.4
20260506060704 69 92 0.0 0.0 0.00 0.00 0.00 55 1009.4
20260506060600 69 92 0.0 0.0 0.00 0.00 0.00 56 1009.4
20260506060506 69 92 0.0 0.0 0.00 0.00 0.00 56 1009.4
20260506060446 70 92 0.0 0.0 0.00 0.00 0.00 54 1009.5
20260506060424 70 92 0.0 0.0 0.00 0.00 0.00 54 1009.4
20260506060413 70 92 0.0 0.0 0.00 0.00 0.00 55 1009.4
20260506060143 70 92 0.0 0.0 0.00 0.00 0.00 55 1009.4
20260506060132 70 92 0.0 0.0 0.00 0.00 0.00 53 1009.4
20260506051333 70 123 1.0 2.0 0.00 0.00 0.00 52 1009.1
20260506051234 70 137 1.0 2.0 0.00 0.00 0.00 51 1009.1
20260506051136 70 148 0.0 2.0 0.00 0.00 0.00 51 1009.2
20260506051033 70 205 0.0 1.0 0.00 0.00 0.00 51 1009.2
20260506050929 70 216 0.0 2.0 0.00 0.00 0.00 52 1009.2
20260506050831 70 221 0.0 2.0 0.00 0.00 0.00 52 1009.2
20260506050729 70 221 0.0 2.0 0.00 0.00 0.00 51 1009.2
20260506050633 70 120 0.0 2.0 0.00 0.00 0.00 52 1009.2
20260506050529 70 120 0.0 2.0 0.00 0.00 0.00 51 1009.2
20260506050429 70 120 0.0 2.0 0.00 0.00 0.00 52 1009.2
20260506050329 70 120 0.0 2.0 0.00 0.00 0.00 52 1009.2
20260506050312 70 120 0.0 2.0 0.00 0.00 0.00 52 1009.2
20260506050301 70 120 0.0 2.0 0.00 0.00 0.00 52 1009.2
20260506045129 71 176 0.0 0.0 0.00 0.00 0.00 52 1009.2
20260506045029 71 176 0.0 0.0 0.00 0.00 0.00 52 1009.1
20260506044929 71 176 0.0 0.0 0.00 0.00 0.00 51 1009.1
20260506044903 71 176 0.0 0.0 0.00 0.00 0.00 52 1009.1
20260506044848 71 176 0.0 0.0 0.00 0.00 0.00 52 1009.2
20260506044530 71 176 0.0 0.0 0.00 0.00 0.00 52 1009.1
20260506044429 71 176 0.0 0.0 0.00 0.00 0.00 51 1009.2
20260506044402 71 176 0.0 0.0 0.00 0.00 0.00 51 1009.2
20260506044350 71 176 0.0 0.0 0.00 0.00 0.00 51 1009.2
20260506044029 71 176 0.0 0.0 0.00 0.00 0.00 51 1009.1
20260506043931 71 176 0.0 0.0 0.00 0.00 0.00 51 1009.1
20260506043908 71 176 0.0 0.0 0.00 0.00 0.00 51 1009.1
20260506043729 72 176 0.0 0.0 0.00 0.00 0.00 51 1009.1
20260506043629 72 176 0.0 0.0 0.00 0.00 0.00 51 1009.1
20260506043530 72 176 0.0 0.0 0.00 0.00 0.00 51 1009.1
20260506043429 72 176 0.0 0.0 0.00 0.00 0.00 50 1009.1
20260506043338 72 176 0.0 0.0 0.00 0.00 0.00 50 1009.1
20260506043231 72 176 0.0 0.0 0.00 0.00 0.00 50 1009.1
20260506043130 72 176 0.0 0.0 0.00 0.00 0.00 50 1009.1
20260506043030 72 176 0.0 0.0 0.00 0.00 0.00 50 1009.0
20260506042930 72 176 0.0 0.0 0.00 0.00 0.00 49 1009.1
20260506042857 72 176 0.0 0.0 0.00 0.00 0.00 49 1009.0
20260506042830 72 176 0.0 0.0 0.00 0.00 0.00 49 1009.0
20260506042819 72 176 0.0 0.0 0.00 0.00 0.00 49 1009.1
20260506042808 73 176 0.0 0.0 0.00 0.00 0.00 49 1009.0
20260506042220 73 176 0.0 1.0 0.00 0.00 0.00 49 1009.0
20260506042120 73 176 0.0 1.0 0.00 0.00 0.00 48 1009.0
20260506042004 73 176 0.0 1.0 0.00 0.00 0.00 48 1009.0
20260506041905 73 176 0.0 1.0 0.00 0.00 0.00 48 1009.0
20260506041803 73 176 0.0 1.0 0.00 0.00 0.00 48 1009.0
20260506041735 73 176 0.0 1.0 0.00 0.00 0.00 48 1009.0
20260506041723 73 176 0.0 1.0 0.00 0.00 0.00 48 1009.0
20260506041406 73 176 0.0 1.0 0.00 0.00 0.00 48 1009.0
20260506041302 73 185 0.0 1.0 0.00 0.00 0.00 48 1009.0
20260506041204 73 174 0.0 1.0 0.00 0.00 0.00 48 1009.0
20260506041102 73 174 0.0 1.0 0.00 0.00 0.00 48 1009.0
20260506041003 74 174 0.0 1.0 0.00 0.00 0.00 48 1009.0
20260506040925 74 174 0.0 1.0 0.00 0.00 0.00 48 1009.0
20260506040859 74 174 0.0 1.0 0.00 0.00 0.00 47 1008.9
20260506040849 74 173 0.0 1.0 0.00 0.00 0.00 47 1009.0
20260506040501 74 170 0.0 1.0 0.00 0.00 0.00 47 1008.9
20260506040403 74 171 0.0 1.0 0.00 0.00 0.00 47 1008.9
20260506040302 74 168 0.0 1.0 0.00 0.00 0.00 47 1008.9
20260506040204 74 168 0.0 1.0 0.00 0.00 0.00 47 1008.9
20260506040101 74 167 0.0 1.0 0.00 0.00 0.00 47 1008.9
20260506040004 74 165 0.0 1.0 0.00 0.00 0.00 48 1008.9
20260506035902 74 165 0.0 1.0 0.00 0.00 0.00 47 1008.9
20260506035834 74 165 0.0 1.0 0.00 0.00 0.00 48 1008.9
20260506035822 74 165 0.0 1.0 0.00 0.00 0.00 48 1008.9
20260506035501 74 165 0.0 1.0 0.00 0.00 0.00 46 1008.8
20260506035404 75 177 0.0 1.0 0.00 0.00 0.00 46 1008.8
20260506035306 75 176 0.0 1.0 0.00 0.00 0.00 46 1008.8
20260506035204 75 176 0.0 1.0 0.00 0.00 0.00 46 1008.8
20260506035103 75 171 0.0 1.0 0.00 0.00 0.00 46 1008.8
20260506035003 75 158 0.0 1.0 0.00 0.00 0.00 46 1008.8
20260506034902 75 158 0.0 1.0 0.00 0.00 0.00 45 1008.7
20260506034804 75 158 0.0 1.0 0.00 0.00 0.00 45 1008.7
20260506034704 75 158 0.0 1.0 0.00 0.00 0.00 45 1008.8
20260506034603 75 174 0.0 1.0 0.00 0.00 0.00 46 1008.7
20260506034504 75 174 0.0 1.0 0.00 0.00 0.00 46 1008.7
20260506034402 76 174 0.0 1.0 0.00 0.00 0.00 46 1008.7
20260506034302 76 174 0.0 1.0 0.00 0.00 0.00 46 1008.8
20260506034203 76 174 0.0 1.0 0.00 0.00 0.00 46 1008.7
20260506034102 76 172 0.0 1.0 0.00 0.00 0.00 46 1008.7
20260506034004 76 172 0.0 1.0 0.00 0.00 0.00 47 1008.7
20260506033926 76 172 0.0 1.0 0.00 0.00 0.00 46 1008.7
20260506033902 76 171 0.0 1.0 0.00 0.00 0.00 47 1008.7
20260506033851 76 169 0.0 1.0 0.00 0.00 0.00 46 1008.7
20260506033501 77 168 0.0 1.0 0.00 0.00 0.00 46 1008.7
20260506033403 77 168 0.0 1.0 0.00 0.00 0.00 45 1008.7
20260506033334 77 167 0.0 1.0 0.00 0.00 0.00 46 1008.7
20260506033322 77 166 0.0 1.0 0.00 0.00 0.00 46 1008.7
20260506033040 77 166 0.0 1.0 0.00 0.00 0.00 46 1008.6
20260506033030 77 166 0.0 1.0 0.00 0.00 0.00 46 1008.6
20260506032702 77 166 0.0 1.0 0.00 0.00 0.00 46 1008.6
20260506032604 78 166 0.0 1.0 0.00 0.00 0.00 45 1008.6
20260506032527 78 166 0.0 2.0 0.00 0.00 0.00 45 1008.6
20260506032512 78 165 0.0 2.0 0.00 0.00 0.00 45 1008.6
20260506032501 78 165 0.0 2.0 0.00 0.00 0.00 45 1008.6
20260506032220 78 165 1.0 2.0 0.00 0.00 0.00 44 1008.5
20260506031950 78 161 1.0 3.0 0.00 0.00 0.00 42 1008.5
20260506031924 78 159 1.0 3.0 0.00 0.00 0.00 42 1008.5
20260506031914 78 159 1.0 3.0 0.00 0.00 0.00 42 1008.5
20260506031902 78 159 1.0 3.0 0.00 0.00 0.00 42 1008.5
20260506031850 78 155 1.0 3.0 0.00 0.00 0.00 42 1008.5
20260506031607 79 156 1.0 3.0 0.00 0.00 0.00 42 1008.5
20260506031553 79 153 1.0 3.0 0.00 0.00 0.00 42 1008.5
20260506031324 79 142 0.0 3.0 0.00 0.00 0.00 42 1008.5
20260506031042 79 140 0.0 3.0 0.00 0.00 0.00 42 1008.4
20260506031031 79 140 1.0 3.0 0.00 0.00 0.00 41 1008.5
20260506030304 80 130 2.0 5.0 0.00 0.00 0.00 41 1008.5
20260506030250 80 138 2.0 5.0 0.00 0.00 0.00 41 1008.4
20260506025930 80 141 1.0 5.0 0.00 0.00 0.00 40 1008.4
20260506025829 80 153 0.0 5.0 0.00 0.00 0.00 41 1008.5
20260506025726 80 160 0.0 5.0 0.00 0.00 0.00 41 1008.5
20260506025627 80 172 1.0 5.0 0.00 0.00 0.00 40 1008.4
20260506025521 80 175 1.0 5.0 0.00 0.00 0.00 41 1008.5
20260506025420 80 150 2.0 5.0 0.00 0.00 0.00 40 1008.5
20260506025356 80 163 2.0 5.0 0.00 0.00 0.00 40 1008.5
20260506025334 80 188 2.0 4.0 0.00 0.00 0.00 40 1008.5
20260506025012 80 179 2.0 4.0 0.00 0.00 0.00 40 1008.5
20260506024911 80 170 2.0 5.0 0.00 0.00 0.00 40 1008.5
20260506024811 80 147 2.0 5.0 0.00 0.00 0.00 40 1008.5
20260506024711 80 152 2.0 5.0 0.00 0.00 0.00 40 1008.5
20260506024613 81 145 2.0 5.0 0.00 0.00 0.00 39 1008.5
20260506024510 81 157 2.0 5.0 0.00 0.00 0.00 39 1008.5
20260506024411 81 167 2.0 5.0 0.00 0.00 0.00 39 1008.5
20260506024308 81 144 2.0 5.0 0.00 0.00 0.00 39 1008.5
20260506024206 81 145 2.0 5.0 0.00 0.00 0.00 39 1008.4
20260506024106 81 142 3.0 5.0 0.00 0.00 0.00 39 1008.5
20260506024006 81 105 3.0 5.0 0.00 0.00 0.00 38 1008.5
20260506023905 81 128 2.0 4.0 0.00 0.00 0.00 39 1008.4
20260506023804 81 133 2.0 3.0 0.00 0.00 0.00 38 1008.5
20260506023703 81 150 1.0 3.0 0.00 0.00 0.00 39 1008.5
20260506023602 81 87 2.0 3.0 0.00 0.00 0.00 39 1008.5
20260506023502 81 133 2.0 3.0 0.00 0.00 0.00 38 1008.5
20260506023412 81 124 2.0 3.0 0.00 0.00 0.00 38 1008.5
20260506023326 81 141 2.0 3.0 0.00 0.00 0.00 38 1008.5
20260506023303 81 153 1.0 3.0 0.00 0.00 0.00 38 1008.5
20260506023249 82 130 0.0 3.0 0.00 0.00 0.00 38 1008.5
20260506023236 82 150 0.0 3.0 0.00 0.00 0.00 38 1008.4
20260506022703 82 144 0.0 6.0 0.00 0.00 0.00 38 1008.5
20260506022605 82 140 1.0 6.0 0.00 0.00 0.00 38 1008.5
20260506022501 82 139 1.0 6.0 0.00 0.00 0.00 38 1008.5
20260506022403 82 142 1.0 6.0 0.00 0.00 0.00 38 1008.4
20260506022305 82 77 1.0 6.0 0.00 0.00 0.00 37 1008.5
20260506022203 82 150 1.0 6.0 0.00 0.00 0.00 38 1008.5
20260506022100 82 78 2.0 6.0 0.00 0.00 0.00 38 1008.4
20260506022003 82 86 2.0 6.0 0.00 0.00 0.00 37 1008.5
20260506021900 82 110 1.0 6.0 0.00 0.00 0.00 37 1008.4
20260506021804 82 107 2.0 6.0 0.00 0.00 0.00 37 1008.5
20260506021700 82 123 2.0 6.0 0.00 0.00 0.00 37 1008.5
20260506021603 82 95 2.0 6.0 0.00 0.00 0.00 37 1008.5
20260506021501 82 105 1.0 6.0 0.00 0.00 0.00 37 1008.5
20260506021430 82 141 2.0 6.0 0.00 0.00 0.00 37 1008.5
20260506021416 82 134 3.0 6.0 0.00 0.00 0.00 37 1008.4
20260506021355 82 157 3.0 6.0 0.00 0.00 0.00 37 1008.5
20260506021340 83 146 2.0 6.0 0.00 0.00 0.00 36 1008.4
20260506020802 83 116 3.0 6.0 0.00 0.00 0.00 36 1008.5
20260506020701 83 140 3.0 6.0 0.00 0.00 0.00 36 1008.4
20260506020604 83 153 3.0 6.0 0.00 0.00 0.00 36 1008.5
20260506020501 83 102 3.0 6.0 0.00 0.00 0.00 36 1008.5
20260506020431 83 149 3.0 6.0 0.00 0.00 0.00 36 1008.5
20260506020415 83 126 2.0 6.0 0.00 0.00 0.00 36 1008.4
20260506020353 83 120 3.0 6.0 0.00 0.00 0.00 36 1008.4
20260506020006 83 121 2.0 7.0 0.00 0.00 0.00 35 1008.5
20260506015900 83 140 2.0 7.0 0.00 0.00 0.00 36 1008.5
20260506015806 83 152 2.0 7.0 0.00 0.00 0.00 35 1008.4
20260506015702 83 150 2.0 7.0 0.00 0.00 0.00 35 1008.3
20260506015605 83 124 3.0 7.0 0.00 0.00 0.00 36 1008.4
20260506015505 83 125 2.0 7.0 0.00 0.00 0.00 36 1008.4
20260506015450 83 54 2.0 7.0 0.00 0.00 0.00 36 1008.4
20260506015438 83 137 2.0 7.0 0.00 0.00 0.00 35 1008.4
20260506015101 83 144 2.0 7.0 0.00 0.00 0.00 35 1008.4
20260506015004 83 136 4.0 7.0 0.00 0.00 0.00 35 1008.3
20260506014901 83 109 3.0 7.0 0.00 0.00 0.00 35 1008.3
20260506014804 83 131 2.0 7.0 0.00 0.00 0.00 35 1008.4
20260506014712 84 109 2.0 6.0 0.00 0.00 0.00 36 1008.3
20260506014659 84 127 2.0 6.0 0.00 0.00 0.00 35 1008.3
20260506014648 84 88 3.0 6.0 0.00 0.00 0.00 35 1008.3
20260506014637 84 102 2.0 6.0 0.00 0.00 0.00 35 1008.3
20260506014355 84 95 3.0 6.0 0.00 0.00 0.00 35 1008.3
20260506014339 84 104 2.0 7.0 0.00 0.00 0.00 34 1008.3
20260506013803 84 132 2.0 7.0 0.00 0.00 0.00 35 1008.3
20260506013701 84 143 2.0 7.0 0.00 0.00 0.00 34 1008.3
20260506013607 84 150 3.0 7.0 0.00 0.00 0.00 34 1008.3
20260506013501 84 188 3.0 7.0 0.00 0.00 0.00 34 1008.3
20260506013406 84 109 2.0 7.0 0.00 0.00 0.00 34 1008.4
20260506013302 85 104 2.0 7.0 0.00 0.00 0.00 33 1008.3
20260506013228 85 141 2.0 7.0 0.00 0.00 0.00 33 1008.3
20260506013101 85 130 2.0 5.0 0.00 0.00 0.00 32 1008.3
20260506013037 85 140 2.0 4.0 0.00 0.00 0.00 32 1008.3
20260506013025 85 146 1.0 4.0 0.00 0.00 0.00 32 1008.4
20260506012701 85 0 1.0 4.0 0.00 0.00 0.00 31 1008.4
20260506012604 85 18 2.0 4.0 0.00 0.00 0.00 29 1008.4
20260506012500 85 26 2.0 4.0 0.00 0.00 0.00 29 1008.3
20260506012404 85 34 2.0 4.0 0.00 0.00 0.00 29 1008.4
20260506012301 85 0 2.0 4.0 0.00 0.00 0.00 29 1008.4
20260506012204 85 9 2.0 4.0 0.00 0.00 0.00 30 1008.3
20260506012102 85 38 2.0 4.0 0.00 0.00 0.00 30 1008.3
20260506012005 85 62 1.0 4.0 0.00 0.00 0.00 29 1008.3
20260506011902 85 81 1.0 4.0 0.00 0.00 0.00 30 1008.3
20260506011807 85 5 2.0 4.0 0.00 0.00 0.00 30 1008.3
20260506011701 85 67 2.0 4.0 0.00 0.00 0.00 29 1008.3
20260506011639 85 19 2.0 5.0 0.00 0.00 0.00 29 1008.3
20260506011625 85 5 2.0 7.0 0.00 0.00 0.00 29 1008.3
20260506011301 85 18 2.0 7.0 0.00 0.00 0.00 30 1008.3
20260506011206 85 19 2.0 7.0 0.00 0.00 0.00 30 1008.3
20260506011132 85 333 2.0 7.0 0.00 0.00 0.00 30 1008.3
20260506011121 85 264 2.0 7.0 0.00 0.00 0.00 30 1008.3
20260506010804 85 242 2.0 7.0 0.00 0.00 0.00 30 1008.2
20260506010700 85 277 2.0 7.0 0.00 0.00 0.00 31 1008.2
20260506010637 85 303 2.0 7.0 0.00 0.00 0.00 30 1008.2
20260506010625 85 254 3.0 6.0 0.00 0.00 0.00 30 1008.1
20260506010301 85 343 3.0 6.0 0.00 0.00 0.00 30 1008.1
20260506010222 85 280 3.0 6.0 0.00 0.00 0.00 29 1008.1
20260506010135 85 299 3.0 6.0 0.00 0.00 0.00 30 1008.1
20260506010121 86 333 2.0 6.0 0.00 0.00 0.00 30 1008.2
20260506005803 86 271 2.0 3.0 0.00 0.00 0.00 30 1008.1
20260506005702 86 347 2.0 5.0 0.00 0.00 0.00 30 1008.1
20260506005605 86 277 2.0 6.0 0.00 0.00 0.00 30 1008.2
20260506005501 86 289 2.0 6.0 0.00 0.00 0.00 29 1008.1
20260506005403 85 240 1.0 6.0 0.00 0.00 0.00 30 1008.2
20260506005301 85 98 2.0 6.0 0.00 0.00 0.00 29 1008.2
20260506005205 85 257 1.0 6.0 0.00 0.00 0.00 29 1008.2
20260506005135 85 292 1.0 6.0 0.00 0.00 0.00 30 1008.2
20260506005125 85 298 2.0 6.0 0.00 0.00 0.00 30 1008.2
20260506004808 85 346 3.0 6.0 0.00 0.00 0.00 30 1008.2
20260506004701 86 320 2.0 6.0 0.00 0.00 0.00 30 1008.2
20260506004604 86 331 1.0 4.0 0.00 0.00 0.00 31 1008.2
20260506004533 86 282 1.0 4.0 0.00 0.00 0.00 31 1008.2
20260506004521 86 302 2.0 4.0 0.00 0.00 0.00 30 1008.2
20260506004210 86 32 2.0 4.0 0.00 0.00 0.00 31 1008.2
20260506004101 86 11 1.0 4.0 0.00 0.00 0.00 30 1008.2
20260506004002 86 0 1.0 4.0 0.00 0.00 0.00 30 1008.2
20260506003902 86 47 2.0 4.0 0.00 0.00 0.00 30 1008.2
20260506003801 86 88 2.0 4.0 0.00 0.00 0.00 30 1008.2
20260506003711 86 83 3.0 4.0 0.00 0.00 0.00 30 1008.2
20260506003603 86 24 2.0 4.0 0.00 0.00 0.00 30 1008.2
20260506003533 86 65 1.0 4.0 0.00 0.00 0.00 30 1008.2
20260506003522 86 333 0.0 3.0 0.00 0.00 0.00 30 1008.2
20260506003215 86 204 1.0 3.0 0.00 0.00 0.00 31 1008.2
20260506003101 86 250 0.0 3.0 0.00 0.00 0.00 30 1008.2
20260506003004 85 275 1.0 4.0 0.00 0.00 0.00 31 1008.2
20260506002948 85 320 1.0 4.0 0.00 0.00 0.00 30 1008.2
20260506002934 85 315 1.0 4.0 0.00 0.00 0.00 31 1008.2
20260506002922 85 19 2.0 4.0 0.00 0.00 0.00 30 1008.1
20260506002900 85 23 2.0 4.0 0.00 0.00 0.00 30 1008.2
20260506002848 85 20 2.0 4.0 0.00 0.00 0.00 30 1008.2
20260506002617 85 5 2.0 4.0 0.00 0.00 0.00 30 1008.2
20260506002332 85 308 1.0 4.0 0.00 0.00 0.00 30 1008.2
20260506002103 85 300 1.0 5.0 0.00 0.00 0.00 30 1008.3
20260506002050 85 294 1.0 5.0 0.00 0.00 0.00 30 1008.2
20260506001501 85 281 2.0 5.0 0.00 0.00 0.00 30 1008.3
20260506001359 85 282 2.0 6.0 0.00 0.00 0.00 30 1008.3
20260506001257 85 322 2.0 6.0 0.00 0.00 0.00 30 1008.3
20260506001211 85 297 3.0 6.0 0.00 0.00 0.00 31 1008.3
20260506001056 85 288 2.0 6.0 0.00 0.00 0.00 31 1008.3
20260506000956 85 333 2.0 6.0 0.00 0.00 0.00 31 1008.3
20260506000855 85 328 2.0 6.0 0.00 0.00 0.00 31 1008.3
20260506000837 85 284 2.0 6.0 0.00 0.00 0.00 32 1008.3
20260506000824 85 317 2.0 6.0 0.00 0.00 0.00 31 1008.3
20260506000451 85 254 2.0 6.0 0.00 0.00 0.00 30 1008.4
20260506000354 85 236 1.0 5.0 0.00 0.00 0.00 30 1008.4
20260506000254 85 298 1.0 3.0 0.00 0.00 0.00 31 1008.4
20260506000205 85 10 2.0 4.0 0.00 0.00 0.00 31 1008.4
20260506000147 85 30 2.0 4.0 0.00 0.00 0.00 31 1008.4
20260506000136 85 15 1.0 4.0 0.00 0.00 0.00 33 1008.5
20260505235748 85 87 1.0 4.0 0.00 0.00 0.00 31 1008.4
20260505235646 85 102 1.0 4.0 0.00 0.00 0.00 32 1008.5
20260505235625 85 352 2.0 4.0 0.00 0.00 0.00 32 1008.5
20260505235608 85 314 2.0 4.0 0.00 0.00 0.00 33 1008.5
20260505235243 85 98 3.0 4.0 0.00 0.00 0.00 31 1008.5
20260505235145 85 74 2.0 0.0 0.00 0.00 0.00 32 1008.5
20260505234302 85 332 3.0 9.0 0.00 0.00 0.00 32 1008.6
20260505234225 84 68 2.0 8.0 0.00 0.00 0.00 32 1008.6
20260505234211 84 59 2.0 8.0 0.00 0.00 0.00 32 1008.6
20260505234200 84 325 3.0 8.0 0.00 0.00 0.00 32 1008.7
20260505234133 84 305 3.0 8.0 0.00 0.00 0.00 31 1008.6
20260505234122 84 5 4.0 8.0 0.00 0.00 0.00 31 1008.6
20260505233849 84 5 2.0 6.0 0.00 0.00 0.00 31 1008.7
20260505233255 85 344 3.0 6.0 0.00 0.00 0.00 32 1008.7
20260505233156 85 19 4.0 6.0 0.00 0.00 0.00 32 1008.7
20260505233121 85 348 3.0 6.0 0.00 0.00 0.00 32 1008.7
20260505233037 85 316 3.0 6.0 0.00 0.00 0.00 32 1008.7
20260505233013 85 291 3.0 6.0 0.00 0.00 0.00 34 1008.7
20260505232715 85 271 2.0 8.0 0.00 0.00 0.00 33 1008.7
20260505232703 85 315 3.0 8.0 0.00 0.00 0.00 33 1008.7
20260505232651 85 5 3.0 8.0 0.00 0.00 0.00 32 1008.7
20260505232627 85 5 2.0 8.0 0.00 0.00 0.00 32 1008.7
20260505232046 85 277 3.0 8.0 0.00 0.00 0.00 34 1008.8
20260505232010 85 259 3.0 8.0 0.00 0.00 0.00 34 1008.7
20260505231946 84 9 2.0 8.0 0.00 0.00 0.00 35 1008.8
20260505231935 84 321 2.0 7.0 0.00 0.00 0.00 33 1008.7
20260505231700 84 317 3.0 7.0 0.00 0.00 0.00 34 1008.8
20260505231647 84 345 2.0 7.0 0.00 0.00 0.00 34 1008.8
20260505231621 84 327 2.0 7.0 0.00 0.00 0.00 34 1008.8
20260505231121 84 340 3.0 7.0 0.00 0.00 0.00 34 1008.9
20260505231110 84 11 3.0 7.0 0.00 0.00 0.00 33 1008.9
20260505230739 84 337 3.0 7.0 0.00 0.00 0.00 34 1008.9
20260505230638 84 352 2.0 7.0 0.00 0.00 0.00 34 1008.9
20260505230541 84 340 1.0 5.0 0.00 0.00 0.00 34 1008.9
20260505230524 84 53 2.0 4.0 0.00 0.00 0.00 34 1008.9
20260505230501 84 352 2.0 4.0 0.00 0.00 0.00 33 1008.9
20260505230135 84 242 1.0 9.0 0.00 0.00 0.00 33 1009.0
20260505230033 84 166 1.0 9.0 0.00 0.00 0.00 33 1009.0
20260505225930 84 340 2.0 9.0 0.00 0.00 0.00 35 1009.0
20260505225829 84 0 2.0 9.0 0.00 0.00 0.00 34 1009.1
20260505225730 84 285 2.0 9.0 0.00 0.00 0.00 34 1009.0
20260505225629 84 294 2.0 9.0 0.00 0.00 0.00 34 1009.1
20260505225530 84 53 3.0 9.0 0.00 0.00 0.00 35 1009.1
20260505225431 84 352 4.0 9.0 0.00 0.00 0.00 34 1009.1
20260505225336 84 5 4.0 9.0 0.00 0.00 0.00 34 1009.1
20260505225229 84 25 4.0 8.0 0.00 0.00 0.00 34 1009.1
20260505225133 84 281 4.0 8.0 0.00 0.00 0.00 33 1009.1
20260505225029 84 13 3.0 8.0 0.00 0.00 0.00 33 1009.1
20260505224931 84 10 2.0 7.0 0.00 0.00 0.00 34 1009.2
20260505224829 84 351 2.0 6.0 0.00 0.00 0.00 35 1009.1
20260505224732 84 96 2.0 6.0 0.00 0.00 0.00 35 1009.1
20260505224630 84 265 2.0 6.0 0.00 0.00 0.00 36 1009.1
20260505224614 84 348 3.0 6.0 0.00 0.00 0.00 35 1009.1
20260505224603 84 308 3.0 6.0 0.00 0.00 0.00 34 1009.1
20260505224226 84 245 3.0 6.0 0.00 0.00 0.00 34 1009.1
20260505224128 84 313 2.0 6.0 0.00 0.00 0.00 35 1009.2
20260505224025 84 290 1.0 6.0 0.00 0.00 0.00 34 1009.1
20260505223926 83 198 1.0 6.0 0.00 0.00 0.00 35 1009.2
20260505223823 83 250 2.0 6.0 0.00 0.00 0.00 35 1009.2
20260505223724 83 28 3.0 6.0 0.00 0.00 0.00 36 1009.3
20260505223655 83 342 3.0 6.0 0.00 0.00 0.00 35 1009.3
20260505223643 83 0 3.0 10.0 0.00 0.00 0.00 35 1009.3
20260505223322 83 352 2.0 10.0 0.00 0.00 0.00 34 1009.3
20260505223220 83 11 2.0 10.0 0.00 0.00 0.00 36 1009.3
20260505223146 83 24 2.0 10.0 0.00 0.00 0.00 37 1009.3
20260505223130 83 352 3.0 10.0 0.00 0.00 0.00 37 1009.3
20260505223119 83 24 2.0 10.0 0.00 0.00 0.00 36 1009.3
20260505222718 83 96 4.0 10.0 0.00 0.00 0.00 35 1009.3
20260505222616 83 54 3.0 10.0 0.00 0.00 0.00 36 1009.3
20260505222517 83 57 3.0 8.0 0.00 0.00 0.00 35 1009.4
20260505222415 83 273 4.0 8.0 0.00 0.00 0.00 35 1009.4
20260505222316 83 0 4.0 8.0 0.00 0.00 0.00 35 1009.4
20260505222241 83 11 4.0 8.0 0.00 0.00 0.00 35 1009.4
20260505222230 83 326 4.0 8.0 0.00 0.00 0.00 36 1009.4
20260505222217 83 352 3.0 7.0 0.00 0.00 0.00 36 1009.4
20260505221931 83 248 3.0 7.0 0.00 0.00 0.00 36 1009.4
20260505221647 83 274 3.0 8.0 0.00 0.00 0.00 37 1009.4
20260505221632 83 281 2.0 8.0 0.00 0.00 0.00 38 1009.5
20260505221325 83 315 2.0 8.0 0.00 0.00 0.00 38 1009.4
20260505221309 83 325 3.0 8.0 0.00 0.00 0.00 38 1009.5
20260505221258 82 281 4.0 8.0 0.00 0.00 0.00 37 1009.5
20260505221024 82 329 4.0 8.0 0.00 0.00 0.00 37 1009.5
20260505221000 82 268 4.0 8.0 0.00 0.00 0.00 37 1009.6
20260505220728 83 325 3.0 8.0 0.00 0.00 0.00 37 1009.5
20260505220401 83 5 4.0 8.0 0.00 0.00 0.00 37 1009.6
20260505220304 83 5 4.0 8.0 0.00 0.00 0.00 37 1009.6
20260505220201 83 275 3.0 6.0 0.00 0.00 0.00 37 1009.7
20260505220106 83 289 2.0 8.0 0.00 0.00 0.00 38 1009.6
20260505220027 83 348 3.0 8.0 0.00 0.00 0.00 38 1009.7
20260505220016 83 14 2.0 8.0 0.00 0.00 0.00 37 1009.7
20260505215952 83 96 1.0 8.0 0.00 0.00 0.00 37 1009.7
20260505215602 83 121 2.0 8.0 0.00 0.00 0.00 37 1009.6
20260505215502 82 237 2.0 8.0 0.00 0.00 0.00 37 1009.7
20260505215401 82 102 4.0 9.0 0.00 0.00 0.00 38 1009.7
20260505215306 83 24 4.0 9.0 0.00 0.00 0.00 37 1009.7
20260505215201 83 75 2.0 9.0 0.00 0.00 0.00 37 1009.7
20260505215105 83 88 3.0 9.0 0.00 0.00 0.00 37 1009.7
20260505215002 83 83 4.0 9.0 0.00 0.00 0.00 37 1009.8
20260505214903 83 323 4.0 9.0 0.00 0.00 0.00 38 1009.7
20260505214800 83 5 3.0 9.0 0.00 0.00 0.00 38 1009.7
20260505214704 83 13 4.0 9.0 0.00 0.00 0.00 39 1009.8
20260505214602 83 0 4.0 9.0 0.00 0.00 0.00 38 1009.7
20260505214506 83 340 2.0 9.0 0.00 0.00 0.00 39 1009.8
20260505214400 83 341 1.0 7.0 0.00 0.00 0.00 38 1009.7
20260505214305 83 348 2.0 7.0 0.00 0.00 0.00 39 1009.7
20260505214203 83 236 2.0 7.0 0.00 0.00 0.00 38 1009.7
20260505214139 83 34 3.0 7.0 0.00 0.00 0.00 40 1009.7
20260505214124 82 0 3.0 7.0 0.00 0.00 0.00 39 1009.7
20260505213801 82 302 4.0 7.0 0.00 0.00 0.00 39 1009.8
20260505213704 82 352 4.0 7.0 0.00 0.00 0.00 38 1009.8
20260505213602 82 327 4.0 7.0 0.00 0.00 0.00 38 1009.8
20260505213506 82 307 3.0 7.0 0.00 0.00 0.00 39 1009.8
20260505213445 82 313 3.0 7.0 0.00 0.00 0.00 39 1009.8
20260505213423 82 230 4.0 7.0 0.00 0.00 0.00 37 1009.8
20260505213104 82 273 2.0 7.0 0.00 0.00 0.00 39 1009.8
20260505213001 82 286 2.0 6.0 0.00 0.00 0.00 39 1009.9
20260505212923 82 5 1.0 6.0 0.00 0.00 0.00 40 1009.8
20260505212758 82 352 2.0 6.0 0.00 0.00 0.00 39 1009.8
20260505212657 82 244 4.0 6.0 0.00 0.00 0.00 38 1009.8
20260505212554 82 309 3.0 6.0 0.00 0.00 0.00 38 1009.9
20260505212455 82 340 3.0 6.0 0.00 0.00 0.00 39 1009.9
20260505212353 82 282 3.0 6.0 0.00 0.00 0.00 39 1009.8
20260505212254 82 295 3.0 6.0 0.00 0.00 0.00 39 1009.9
20260505212152 82 302 4.0 6.0 0.00 0.00 0.00 40 1009.9
20260505212052 82 5 3.0 6.0 0.00 0.00 0.00 39 1009.9
20260505211952 82 344 2.0 6.0 0.00 0.00 0.00 39 1009.9
20260505211851 82 317 2.0 6.0 0.00 0.00 0.00 40 1009.9
20260505211749 81 219 2.0 6.0 0.00 0.00 0.00 39 1009.9
20260505211649 81 15 3.0 8.0 0.00 0.00 0.00 39 1009.9
20260505211548 81 111 3.0 8.0 0.00 0.00 0.00 39 1009.9
20260505211531 81 36 3.0 8.0 0.00 0.00 0.00 41 1009.9
20260505211519 81 74 3.0 8.0 0.00 0.00 0.00 41 1009.9
20260505211217 81 5 1.0 8.0 0.00 0.00 0.00 40 1009.9
20260505211206 81 136 2.0 8.0 0.00 0.00 0.00 42 1009.9
20260505210845 81 35 4.0 8.0 0.00 0.00 0.00 40 1009.9
20260505210742 81 15 2.0 8.0 0.00 0.00 0.00 41 1009.9
20260505210644 81 287 2.0 8.0 0.00 0.00 0.00 44 1010.1
20260505210541 81 259 2.0 8.0 0.00 0.00 0.00 41 1010.1
20260505210442 81 253 2.0 8.0 0.00 0.00 0.00 42 1010.1
20260505210341 80 328 2.0 8.0 0.00 0.00 0.00 42 1010.1
20260505210248 80 279 3.0 10.0 0.00 0.00 0.00 42 1010.1
20260505210233 80 5 3.0 10.0 0.00 0.00 0.00 40 1010.1
20260505210222 81 26 3.0 10.0 0.00 0.00 0.00 40 1010.2
20260505210207 81 334 3.0 10.0 0.00 0.00 0.00 42 1010.2
20260505205925 80 107 2.0 10.0 0.00 0.00 0.00 42 1010.2
20260505205534 80 51 4.0 10.0 0.00 0.00 0.00 42 1010.3
20260505205435 80 301 5.0 10.0 0.00 0.00 0.00 41 1010.3
20260505205413 80 5 5.0 11.0 0.00 0.00 0.00 41 1010.3
20260505205350 80 5 4.0 11.0 0.00 0.00 0.00 42 1010.4
20260505205030 80 227 2.0 11.0 0.00 0.00 0.00 42 1010.4
20260505205012 80 258 2.0 11.0 0.00 0.00 0.00 42 1010.4
20260505205001 80 346 3.0 11.0 0.00 0.00 0.00 44 1010.5
20260505204632 80 267 5.0 11.0 0.00 0.00 0.00 43 1010.5
20260505204533 80 312 4.0 11.0 0.00 0.00 0.00 44 1010.5
20260505204433 80 327 2.0 11.0 0.00 0.00 0.00 43 1010.5
20260505204331 80 5 2.0 9.0 0.00 0.00 0.00 43 1010.5
20260505204230 80 246 4.0 9.0 0.00 0.00 0.00 43 1010.5
20260505204130 80 302 4.0 9.0 0.00 0.00 0.00 44 1010.6
20260505204030 80 346 3.0 9.0 0.00 0.00 0.00 43 1010.6
20260505203929 80 304 4.0 9.0 0.00 0.00 0.00 43 1010.5
20260505203829 79 349 5.0 9.0 0.00 0.00 0.00 43 1010.5
20260505203727 79 13 5.0 9.0 0.00 0.00 0.00 43 1010.6
20260505203653 79 333 4.0 9.0 0.00 0.00 0.00 43 1010.5
20260505203639 79 329 4.0 9.0 0.00 0.00 0.00 43 1010.6
20260505203628 79 332 4.0 9.0 0.00 0.00 0.00 43 1010.5
20260505203614 79 307 4.0 9.0 0.00 0.00 0.00 44 1010.6
20260505203023 79 31 4.0 9.0 0.00 0.00 0.00 44 1010.6
20260505202922 79 332 4.0 10.0 0.00 0.00 0.00 44 1010.6
20260505202847 79 303 5.0 10.0 0.00 0.00 0.00 43 1010.6
20260505202821 79 351 4.0 10.0 0.00 0.00 0.00 44 1010.6
20260505202810 79 42 4.0 10.0 0.00 0.00 0.00 43 1010.6
20260505202423 79 9 4.0 10.0 0.00 0.00 0.00 42 1010.7
20260505202402 79 311 4.0 10.0 0.00 0.00 0.00 44 1010.6
20260505202338 79 281 5.0 10.0 0.00 0.00 0.00 43 1010.7
20260505202048 79 352 6.0 10.0 0.00 0.00 0.00 43 1010.6
20260505202034 79 290 5.0 10.0 0.00 0.00 0.00 43 1010.6
20260505202023 79 253 3.0 9.0 0.00 0.00 0.00 44 1010.6
20260505201957 79 342 3.0 9.0 0.00 0.00 0.00 43 1010.6
20260505201946 79 330 2.0 9.0 0.00 0.00 0.00 44 1010.7
20260505201713 79 69 3.0 9.0 0.00 0.00 0.00 42 1010.6
20260505201701 79 56 4.0 9.0 0.00 0.00 0.00 42 1010.6
20260505201418 79 341 5.0 9.0 0.00 0.00 0.00 44 1010.6
20260505201147 79 352 3.0 8.0 0.00 0.00 0.00 45 1010.6
20260505200904 79 286 2.0 8.0 0.00 0.00 0.00 44 1010.6
20260505200631 79 348 3.0 9.0 0.00 0.00 0.00 45 1010.6
20260505200355 78 323 3.0 9.0 0.00 0.00 0.00 45 1010.6
20260505200332 78 296 3.0 9.0 0.00 0.00 0.00 44 1010.6
20260505200320 78 325 2.0 9.0 0.00 0.00 0.00 45 1010.6
20260505200049 78 326 3.0 9.0 0.00 0.00 0.00 44 1010.6
20260505195801 78 352 4.0 9.0 0.00 0.00 0.00 44 1010.6
20260505195750 78 270 4.0 9.0 0.00 0.00 0.00 45 1010.7
20260505195736 78 334 3.0 7.0 0.00 0.00 0.00 44 1010.6
20260505195654 78 323 3.0 12.0 0.00 0.00 0.00 45 1010.6
20260505195101 77 352 1.0 12.0 0.00 0.00 0.00 45 1010.6
20260505195004 77 18 2.0 12.0 0.00 0.00 0.00 46 1010.6
20260505194901 77 309 2.0 12.0 0.00 0.00 0.00 44 1010.6
20260505194837 77 272 3.0 12.0 0.00 0.00 0.00 45 1010.6
20260505194811 77 9 5.0 12.0 0.00 0.00 0.00 44 1010.6
20260505194800 77 342 7.0 12.0 0.00 0.00 0.00 44 1010.7
20260505194528 77 5 2.0 10.0 0.00 0.00 0.00 44 1010.6
20260505194204 77 288 2.0 9.0 0.00 0.00 0.00 44 1010.6
20260505194101 77 279 4.0 9.0 0.00 0.00 0.00 45 1010.6
20260505194004 77 332 5.0 9.0 0.00 0.00 0.00 43 1010.7
20260505193904 77 343 5.0 9.0 0.00 0.00 0.00 45 1010.7
20260505193849 77 5 3.0 9.0 0.00 0.00 0.00 44 1010.7
20260505193825 77 323 2.0 9.0 0.00 0.00 0.00 44 1010.7
20260505193501 77 11 5.0 9.0 0.00 0.00 0.00 45 1010.7
20260505193402 77 311 4.0 9.0 0.00 0.00 0.00 45 1010.7
20260505193302 77 346 2.0 9.0 0.00 0.00 0.00 45 1010.7
20260505193202 77 57 2.0 9.0 0.00 0.00 0.00 46 1010.7
20260505193102 77 327 3.0 9.0 0.00 0.00 0.00 45 1010.7
20260505193046 77 296 4.0 9.0 0.00 0.00 0.00 44 1010.6
20260505193034 77 333 4.0 9.0 0.00 0.00 0.00 44 1010.7
20260505192740 77 336 3.0 9.0 0.00 0.00 0.00 45 1010.7
20260505192727 77 283 2.0 9.0 0.00 0.00 0.00 47 1010.8
20260505192403 77 42 3.0 8.0 0.00 0.00 0.00 46 1010.7
20260505192320 77 315 4.0 8.0 0.00 0.00 0.00 45 1010.7
20260505192255 77 269 4.0 8.0 0.00 0.00 0.00 45 1010.7
20260505192243 76 14 3.0 8.0 0.00 0.00 0.00 47 1010.6
20260505192232 76 352 3.0 8.0 0.00 0.00 0.00 47 1010.7
20260505192220 76 313 3.0 8.0 0.00 0.00 0.00 46 1010.7
20260505192209 76 60 2.0 8.0 0.00 0.00 0.00 47 1010.7
20260505191925 76 328 4.0 8.0 0.00 0.00 0.00 48 1010.7
20260505191652 76 244 4.0 9.0 0.00 0.00 0.00 47 1010.7
20260505191101 76 284 4.0 9.0 0.00 0.00 0.00 47 1010.8
20260505191002 75 352 4.0 9.0 0.00 0.00 0.00 47 1010.8
20260505190901 76 9 4.0 9.0 0.00 0.00 0.00 47 1010.8
20260505190802 76 11 4.0 9.0 0.00 0.00 0.00 47 1010.8
20260505190702 76 40 4.0 9.0 0.00 0.00 0.00 47 1010.8
20260505190607 76 27 4.0 9.0 0.00 0.00 0.00 47 1010.8
20260505190533 76 350 3.0 9.0 0.00 0.00 0.00 47 1010.8
20260505190522 76 333 3.0 6.0 0.00 0.00 0.00 47 1010.8
20260505190203 76 292 2.0 7.0 0.00 0.00 0.00 47 1010.8
20260505190002 75 23 4.0 7.0 0.00 0.00 0.00 47 1010.8
20260505185904 75 339 2.0 7.0 0.00 0.00 0.00 47 1010.8
20260505185805 75 74 2.0 7.0 0.00 0.00 0.00 47 1010.8
20260505185735 75 53 3.0 9.0 0.00 0.00 0.00 48 1010.8
20260505185722 75 5 3.0 9.0 0.00 0.00 0.00 49 1010.9
20260505185427 75 287 3.0 9.0 0.00 0.00 0.00 49 1010.8
20260505185304 75 283 2.0 9.0 0.00 0.00 0.00 47 1010.8
20260505185202 75 344 2.0 9.0 0.00 0.00 0.00 47 1010.8
20260505185100 75 69 4.0 9.0 0.00 0.00 0.00 48 1010.8
20260505185005 75 322 4.0 9.0 0.00 0.00 0.00 48 1010.9
20260505184943 75 337 4.0 9.0 0.00 0.00 0.00 47 1010.8
20260505184932 75 274 3.0 9.0 0.00 0.00 0.00 49 1010.9
20260505184635 75 296 4.0 8.0 0.00 0.00 0.00 48 1010.9
20260505184622 75 316 3.0 8.0 0.00 0.00 0.00 49 1010.9
20260505184301 74 350 5.0 9.0 0.00 0.00 0.00 49 1010.9
20260505184203 74 340 6.0 9.0 0.00 0.00 0.00 47 1010.9
20260505184102 74 254 4.0 9.0 0.00 0.00 0.00 47 1010.9
20260505184003 74 251 3.0 11.0 0.00 0.00 0.00 48 1010.9
20260505183902 74 295 3.0 11.0 0.00 0.00 0.00 50 1011.0
20260505183803 74 281 3.0 11.0 0.00 0.00 0.00 48 1010.9
20260505183701 74 275 4.0 11.0 0.00 0.00 0.00 48 1010.9
20260505183603 74 279 5.0 11.0 0.00 0.00 0.00 47 1010.9
20260505183503 74 289 4.0 11.0 0.00 0.00 0.00 47 1011.0
20260505183407 74 352 3.0 11.0 0.00 0.00 0.00 48 1011.0
20260505183349 74 285 5.0 11.0 0.00 0.00 0.00 48 1011.0
20260505183323 74 301 6.0 11.0 0.00 0.00 0.00 49 1010.9
20260505183032 74 252 4.0 9.0 0.00 0.00 0.00 48 1011.0
20260505183020 74 264 3.0 9.0 0.00 0.00 0.00 49 1010.9
20260505182704 73 352 3.0 9.0 0.00 0.00 0.00 50 1011.0
20260505182602 73 344 3.0 9.0 0.00 0.00 0.00 50 1011.0
20260505182509 73 311 4.0 9.0 0.00 0.00 0.00 49 1011.0
20260505182454 73 349 6.0 9.0 0.00 0.00 0.00 49 1011.0
20260505182442 73 5 5.0 9.0 0.00 0.00 0.00 50 1011.0
20260505182419 73 342 4.0 9.0 0.00 0.00 0.00 51 1011.0
20260505182336 73 0 4.0 9.0 0.00 0.00 0.00 51 1011.0
20260505182325 73 352 4.0 9.0 0.00 0.00 0.00 50 1011.0
20260505181822 73 22 3.0 11.0 0.00 0.00 0.00 49 1011.0
20260505181502 73 352 4.0 11.0 0.00 0.00 0.00 50 1011.0
20260505181401 73 285 3.0 11.0 0.00 0.00 0.00 50 1011.0
20260505181301 73 278 3.0 11.0 0.00 0.00 0.00 50 1011.1
20260505181201 73 348 4.0 11.0 0.00 0.00 0.00 50 1011.0
20260505181105 73 325 4.0 11.0 0.00 0.00 0.00 52 1011.0
20260505181001 73 319 3.0 11.0 0.00 0.00 0.00 52 1011.0
20260505180902 72 352 3.0 11.0 0.00 0.00 0.00 52 1011.0
20260505180800 72 17 4.0 10.0 0.00 0.00 0.00 50 1011.0
20260505180702 72 302 4.0 10.0 0.00 0.00 0.00 51 1011.0
20260505180602 72 340 3.0 10.0 0.00 0.00 0.00 50 1011.0
20260505180500 72 271 4.0 10.0 0.00 0.00 0.00 51 1011.0
20260505180400 72 323 5.0 10.0 0.00 0.00 0.00 50 1011.0
20260505180301 72 295 5.0 10.0 0.00 0.00 0.00 49 1011.0
20260505180200 72 292 4.0 10.0 0.00 0.00 0.00 50 1011.0
20260505180000 72 275 4.0 10.0 0.00 0.00 0.00 51 1011.0
20260505175913 72 15 3.0 10.0 0.00 0.00 0.00 51 1011.0
20260505175857 72 333 3.0 10.0 0.00 0.00 0.00 51 1011.0
20260505175834 71 284 3.0 10.0 0.00 0.00 0.00 52 1011.0
20260505175821 71 315 3.0 10.0 0.00 0.00 0.00 51 1011.0
20260505175550 71 313 6.0 10.0 0.00 0.00 0.00 50 1011.0
20260505175305 71 339 3.0 10.0 0.00 0.00 0.00 52 1011.0
20260505175251 71 329 2.0 8.0 0.00 0.00 0.00 53 1011.0
20260505175240 71 5 2.0 8.0 0.00 0.00 0.00 53 1011.0
20260505174938 71 32 3.0 10.0 0.00 0.00 0.00 52 1010.9
20260505174611 71 335 4.0 10.0 0.00 0.00 0.00 52 1010.9
20260505174553 71 0 3.0 10.0 0.00 0.00 0.00 51 1011.0
20260505174539 71 13 3.0 10.0 0.00 0.00 0.00 52 1011.0
20260505174527 70 64 4.0 10.0 0.00 0.00 0.00 52 1011.0
20260505174505 71 352 4.0 10.0 0.00 0.00 0.00 51 1011.0
20260505174453 71 9 4.0 10.0 0.00 0.00 0.00 52 1011.0
20260505174222 70 327 4.0 11.0 0.00 0.00 0.00 52 1011.1
20260505173717 70 315 4.0 11.0 0.00 0.00 0.00 53 1011.0
20260505173356 70 285 5.0 11.0 0.00 0.00 0.00 52 1011.0
20260505173337 70 309 5.0 11.0 0.00 0.00 0.00 54 1011.0
20260505173314 70 15 5.0 11.0 0.00 0.00 0.00 53 1011.0
20260505173010 70 343 2.0 9.0 0.00 0.00 0.00 55 1011.0
20260505172957 69 333 2.0 9.0 0.00 0.00 0.00 55 1011.0
20260505172946 69 340 4.0 10.0 0.00 0.00 0.00 54 1011.0
20260505172921 69 232 5.0 10.0 0.00 0.00 0.00 53 1011.0
20260505172909 69 259 4.0 10.0 0.00 0.00 0.00 53 1011.0
20260505172418 69 307 4.0 10.0 0.00 0.00 0.00 54 1011.0
20260505172051 69 301 6.0 10.0 0.00 0.00 0.00 53 1010.9
20260505171944 69 280 5.0 10.0 0.00 0.00 0.00 53 1011.0
20260505171844 69 284 4.0 10.0 0.00 0.00 0.00 53 1011.0
20260505171742 69 280 4.0 7.0 0.00 0.00 0.00 53 1011.0
20260505171641 69 259 2.0 7.0 0.00 0.00 0.00 54 1011.0
20260505171541 69 0 2.0 7.0 0.00 0.00 0.00 53 1010.9
20260505171511 69 331 4.0 7.0 0.00 0.00 0.00 55 1010.9
20260505171500 69 267 5.0 7.0 0.00 0.00 0.00 54 1010.9
20260505171139 69 319 2.0 11.0 0.00 0.00 0.00 55 1010.9
20260505171037 69 281 2.0 11.0 0.00 0.00 0.00 55 1010.9
20260505170940 68 241 3.0 11.0 0.00 0.00 0.00 55 1010.9
20260505170836 68 248 3.0 11.0 0.00 0.00 0.00 55 1010.9
20260505170734 68 267 3.0 11.0 0.00 0.00 0.00 54 1010.9
20260505170634 68 282 4.0 11.0 0.00 0.00 0.00 54 1010.9
20260505170533 68 234 5.0 11.0 0.00 0.00 0.00 55 1010.9
20260505170431 68 252 6.0 11.0 0.00 0.00 0.00 54 1011.0
20260505170354 68 252 6.0 11.0 0.00 0.00 0.00 54 1010.9
20260505170340 68 284 6.0 11.0 0.00 0.00 0.00 53 1010.9
20260505170317 68 263 5.0 10.0 0.00 0.00 0.00 53 1010.9
20260505170303 68 273 4.0 9.0 0.00 0.00 0.00 54 1011.0
20260505170033 68 245 4.0 9.0 0.00 0.00 0.00 54 1010.9
20260505165751 68 295 4.0 9.0 0.00 0.00 0.00 54 1011.0
20260505165431 68 289 5.0 9.0 0.00 0.00 0.00 54 1011.0
20260505165329 68 257 4.0 9.0 0.00 0.00 0.00 54 1010.9
20260505165230 68 334 3.0 8.0 0.00 0.00 0.00 55 1010.9
20260505165129 68 5 3.0 8.0 0.00 0.00 0.00 55 1011.0
20260505165052 68 9 4.0 8.0 0.00 0.00 0.00 54 1010.9
20260505164928 68 343 4.0 8.0 0.00 0.00 0.00 55 1010.9
20260505164829 68 9 4.0 8.0 0.00 0.00 0.00 55 1011.0
20260505164728 68 348 3.0 8.0 0.00 0.00 0.00 57 1010.9
20260505164631 68 5 4.0 7.0 0.00 0.00 0.00 56 1010.9
20260505164528 67 336 3.0 7.0 0.00 0.00 0.00 56 1010.9
20260505164458 68 24 2.0 6.0 0.00 0.00 0.00 56 1011.0
20260505164445 67 330 2.0 8.0 0.00 0.00 0.00 56 1011.0
20260505164121 67 340 3.0 8.0 0.00 0.00 0.00 56 1011.0
20260505164020 67 0 3.0 8.0 0.00 0.00 0.00 56 1011.0
20260505163920 67 279 3.0 8.0 0.00 0.00 0.00 56 1010.9
20260505163819 67 294 3.0 8.0 0.00 0.00 0.00 56 1011.0
20260505163720 67 271 4.0 8.0 0.00 0.00 0.00 56 1011.0
20260505163620 67 350 5.0 8.0 0.00 0.00 0.00 56 1011.0
20260505163518 67 331 5.0 8.0 0.00 0.00 0.00 56 1011.0
20260505163449 67 329 4.0 8.0 0.00 0.00 0.00 56 1011.0
20260505163436 67 352 3.0 7.0 0.00 0.00 0.00 56 1011.0
20260505163115 67 335 2.0 7.0 0.00 0.00 0.00 56 1010.9
20260505163014 67 339 3.0 8.0 0.00 0.00 0.00 57 1010.9
20260505162913 67 321 3.0 8.0 0.00 0.00 0.00 58 1010.9
20260505162856 67 314 3.0 8.0 0.00 0.00 0.00 56 1010.9
20260505162845 67 352 4.0 8.0 0.00 0.00 0.00 57 1010.8
20260505162512 67 0 2.0 8.0 0.00 0.00 0.00 57 1010.8
20260505162411 67 292 3.0 8.0 0.00 0.00 0.00 58 1010.8
20260505162310 67 318 3.0 8.0 0.00 0.00 0.00 58 1010.7
20260505162209 67 298 4.0 8.0 0.00 0.00 0.00 57 1010.8
20260505162121 67 340 5.0 8.0 0.00 0.00 0.00 56 1010.8
20260505162105 67 321 4.0 8.0 0.00 0.00 0.00 57 1010.7
20260505162054 67 323 4.0 8.0 0.00 0.00 0.00 57 1010.8
20260505162041 67 331 4.0 8.0 0.00 0.00 0.00 58 1010.8
20260505161726 67 317 4.0 8.0 0.00 0.00 0.00 57 1010.8
20260505161401 67 315 3.0 6.0 0.00 0.00 0.00 58 1010.8
20260505161301 67 332 3.0 6.0 0.00 0.00 0.00 58 1010.8
20260505161202 67 311 3.0 4.0 0.00 0.00 0.00 58 1010.7
20260505161101 67 338 3.0 4.0 0.00 0.00 0.00 58 1010.7
20260505161002 67 0 3.0 4.0 0.00 0.00 0.00 58 1010.7
20260505160904 67 281 2.0 6.0 0.00 0.00 0.00 59 1010.7
20260505160845 66 294 2.0 6.0 0.00 0.00 0.00 58 1010.7
20260505160834 66 277 2.0 6.0 0.00 0.00 0.00 59 1010.6
20260505160502 66 250 2.0 6.0 0.00 0.00 0.00 59 1010.7
20260505160400 66 352 3.0 6.0 0.00 0.00 0.00 59 1010.7
20260505160304 66 273 3.0 6.0 0.00 0.00 0.00 59 1010.7
20260505160206 66 350 4.0 6.0 0.00 0.00 0.00 58 1010.6
20260505160134 66 321 3.0 7.0 0.00 0.00 0.00 59 1010.6
20260505160122 66 313 2.0 7.0 0.00 0.00 0.00 59 1010.7
20260505153356 65 278 3.0 7.0 0.00 0.00 0.00 59 1010.4
20260505153255 65 297 3.0 7.0 0.00 0.00 0.00 58 1010.4
20260505153154 65 295 2.0 5.0 0.00 0.00 0.00 58 1010.4
20260505153054 65 290 3.0 7.0 0.00 0.00 0.00 58 1010.4
20260505153019 65 287 2.0 7.0 0.00 0.00 0.00 58 1010.4
20260505153008 65 276 2.0 7.0 0.00 0.00 0.00 59 1010.4
20260505152955 65 321 2.0 7.0 0.00 0.00 0.00 59 1010.3
20260505152710 65 0 2.0 7.0 0.00 0.00 0.00 59 1010.3
20260505152349 65 302 2.0 7.0 0.00 0.00 0.00 60 1010.3
20260505152247 65 248 3.0 7.0 0.00 0.00 0.00 60 1010.3
20260505152146 64 234 3.0 7.0 0.00 0.00 0.00 60 1010.3
20260505152048 64 282 3.0 6.0 0.00 0.00 0.00 60 1010.2
20260505151945 64 239 2.0 5.0 0.00 0.00 0.00 61 1010.2
20260505151852 64 262 1.0 5.0 0.00 0.00 0.00 61 1010.2
20260505151836 64 269 2.0 4.0 0.00 0.00 0.00 61 1010.1
20260505151826 64 277 2.0 4.0 0.00 0.00 0.00 61 1010.2
20260505151801 64 286 2.0 4.0 0.00 0.00 0.00 61 1010.2
20260505151501 64 275 2.0 6.0 0.00 0.00 0.00 62 1010.2
20260505151143 64 255 2.0 8.0 0.00 0.00 0.00 62 1010.3
20260505151040 63 278 2.0 8.0 0.00 0.00 0.00 62 1010.2
20260505150940 63 271 2.0 8.0 0.00 0.00 0.00 62 1010.2
20260505150839 63 252 2.0 8.0 0.00 0.00 0.00 62 1010.2
20260505150738 63 269 2.0 8.0 0.00 0.00 0.00 63 1010.2
20260505150639 63 309 3.0 8.0 0.00 0.00 0.00 62 1010.2
20260505150537 63 272 3.0 8.0 0.00 0.00 0.00 62 1010.2
20260505150507 63 232 4.0 8.0 0.00 0.00 0.00 62 1010.2
20260505150454 63 234 5.0 8.0 0.00 0.00 0.00 61 1010.2
20260505150138 63 278 3.0 7.0 0.00 0.00 0.00 62 1010.2
20260505140623 60 277 2.0 6.0 0.00 0.00 0.00 69 1009.5
20260505140523 60 273 2.0 6.0 0.00 0.00 0.00 69 1009.5
20260505140418 60 272 2.0 6.0 0.00 0.00 0.00 70 1009.4
20260505140318 60 250 3.0 6.0 0.00 0.00 0.00 70 1009.5
20260505140219 60 273 3.0 6.0 0.00 0.00 0.00 70 1009.4
20260505140121 60 234 3.0 7.0 0.00 0.00 0.00 70 1009.5